Location: East Guldeford
(50.9500°N, 0.7500°E)
Time: 09:06:27
(UTC+00:00)

Cosmos 2298 Rocket - Pass Details

Date: 12 May 2021
Orbit: 776 x 784 km, 74.0° (Epoch: 16 June)

Event Time Altitude Azimuth Distance (km) Brightness Sun altitude
Exits shadow 23:42:48 44° 183° (S) 1,063 4.2 -20.6°
Maximum altitude 23:44:27 74° 111° (ESE) 813 4.0 -20.6°
Drops below altitude 10° 23:49:44 10° 28° (NNE) 2,337 7.4 -20.7°
Sets 23:52:08 0° 26° (NNE) 3,269 8.4 -20.7°
